Search

Start typing what you are looking for.

Categories

Regions

IUGOSLAVIEI 72

Sector BRATNER

Contact


ZONE ARONDATE


  • Iugoslaviei nr. 72

  • Iugoslaviei nr. 72

  • NIVEL DEȘEURI

    Deșeuri Hârtie Deșeuri Biodegradabile Deșeuri Menajere Deșeuri Plastic Ora de Raportare
    95,91 -1.664,17 98,64 -1.680,08 22/09/2021 07:12 AM
    95,82 -1.664,36 98,73 -1.678,60 22/09/2021 06:41 AM
    95,91 -1.664,36 98,76 -1.677,44 22/09/2021 06:11 AM
    95,91 -1.663,34 98,76 -1.677,07 22/09/2021 05:41 AM
    95,82 -1.662,12 98,67 -1.676,50 22/09/2021 05:11 AM
    95,91 -1.660,46 98,76 -1.676,04 22/09/2021 04:40 AM
    95,91 -1.659,21 98,76 -1.675,02 22/09/2021 04:10 AM
    95,91 -1.659,68 -711,67 -1.675,41 22/09/2021 03:40 AM
    95,89 -1.662,22 98,76 -1.675,61 22/09/2021 03:10 AM
    95,91 -1.662,34 98,76 -1.676,41 22/09/2021 02:39 AM
    table.wpDataTable { table-layout: fixed !important; } table.wpDataTable td, table.wpDataTable th { white-space: normal !important; }


    PARAMETRII

    TensiuneBaterie TemperaturaBaterie UmiditateCuva TemperaturaCuva Ora de Raportare
    12,79 10,54 NAN NAN 22/09/2021 07:12 AM
    12,84 10,54 NAN NAN 22/09/2021 06:41 AM
    12,77 10,54 NAN NAN 22/09/2021 06:11 AM
    12,79 10,64 NAN NAN 22/09/2021 05:41 AM
    12,84 10,64 NAN NAN 22/09/2021 05:11 AM
    12,89 10,94 NAN NAN 22/09/2021 04:40 AM
    12,87 11,04 NAN NAN 22/09/2021 04:10 AM
    12,87 11,14 NAN NAN 22/09/2021 03:40 AM
    12,96 11,04 NAN NAN 22/09/2021 03:10 AM
    12,92 11,24 NAN NAN 22/09/2021 02:39 AM
    table.wpDataTable { table-layout: fixed !important; }